Corpus Christi, TX

6:41 PM CDT on May 26, 2018 (GMT -0500)
Corpus Christi International

Weather History for KCRP - December, 2011

Change the Weather History Date:

Saturday, December 24, 2011

  Actual Average Record
Temperature  
Mean Temperature 50 °F 57 °F  
Max Temperature 52 °F 67 °F 88 °F (1974)
Min Temperature 47 °F 47 °F 15 °F (1989)
Degree Days  
Heating Degree Days 15 9  
Month to date heating degree days 159 186  
Since 1 July heating degree days 253 287  
Cooling Degree Days 0 1  
Month to date cooling degree days 49 42  
Year to date cooling degree days 4126 3517  
Moisture  
Dew Point 46 °F    
Average Humidity 82    
Maximum Humidity 93    
Minimum Humidity 71    
Precipitation  
Precipitation 0.10 in 0.06 in 1.59 in (1938)
Month to date precipitation 1.17 1.37  
Year to date precipitation 12.05 31.30  
Snow  
Snow 0.00 in - - ()
Month to date snowfall 0.0  
Since 1 July snowfall 0.0  
Snow Depth 0.00 in    
Sea Level Pressure  
Sea Level Pressure 30.25 in    
Wind  
Wind Speed 19 mph (NNE)    
Max Wind Speed 28 mph    
Max Gust Speed 33 mph    
Visibility 6 miles    
Events Rain    
T = Trace of Precipitation, MM = Missing Value Source: NWS Daily Summary

Daily Weather History Graph

Daily Weather History Graph

Search for Another Location

Airport or City:

Astronomy

Dec. 24, 2011 Rise Set
Actual Time 7:17 AM CST 5:41 PM CST
Civil Twilight 6:52 AM CST 6:06 PM CST
Nautical Twilight 6:23 AM CST 6:36 PM CST
Astronomical Twilight 5:54 AM CST 7:04 PM CST
Moon 7:07 AM CST (12/24) 5:54 PM CST (12/24)
Length of Visible Light 11h 14m
Length of Day
10h 23m
New Moon, 0% of the Moon is Illuminated
Dec 24
New Moon
Dec 24
New
Jan 1
First Quarter
Jan 9
Full
Jan 16
Last Quarter

Hourly Weather History & Observations

Time (CST) Temp. Windchill Dew Point Humidity Pressure Visibility Wind Dir Wind Speed Gust Speed Precip Events Conditions
12:51 AM 50.0 °F - 43.0 °F 77% 30.24 in 10.0 mi NNE 21.9 mph - N/A   Overcast
1:51 AM 50.0 °F - 43.0 °F 77% 30.24 in 10.0 mi NNE 17.3 mph 26.5 mph N/A   Overcast
2:21 AM 50.0 °F - 44.6 °F 82% 30.23 in 10.0 mi NNE 18.4 mph - N/A   Overcast
2:51 AM 50.0 °F - 44.1 °F 80% 30.23 in 10.0 mi NNE 19.6 mph 26.5 mph N/A   Overcast
3:51 AM 51.1 °F - 45.0 °F 80% 30.21 in 10.0 mi NNE 19.6 mph - N/A   Overcast
4:51 AM 51.1 °F - 45.0 °F 80% 30.21 in 10.0 mi NNE 11.5 mph - N/A   Overcast
5:51 AM 52.0 °F - 46.0 °F 80% 30.20 in 10.0 mi NE 18.4 mph 26.5 mph N/A   Overcast
6:43 AM 51.8 °F - 46.4 °F 82% 30.20 in 6.0 mi NE 20.7 mph 27.6 mph 0.00 in Rain Light Rain
6:51 AM 51.1 °F - 48.0 °F 89% 30.20 in 6.0 mi NE 18.4 mph 26.5 mph 0.00 in Rain Light Rain
7:48 AM 51.8 °F - 48.2 °F 88% 30.23 in 2.0 mi NNE 20.7 mph - 0.00 in Rain Light Rain
7:51 AM 51.1 °F - 48.0 °F 89% 30.23 in 2.0 mi NNE 21.9 mph - 0.00 in Rain Light Rain
8:25 AM 51.8 °F - 48.2 °F 88% 30.25 in 1.5 mi NNE 21.9 mph - 0.02 in Rain Light Rain
8:51 AM 50.0 °F - 48.0 °F 93% 30.25 in 1.5 mi NNE 17.3 mph 28.8 mph 0.03 in Rain Light Rain
9:48 AM 50.0 °F - 48.2 °F 94% 30.26 in 2.0 mi NNE 24.2 mph 29.9 mph 0.01 in Rain Light Rain
9:51 AM 50.0 °F - 48.0 °F 93% 30.26 in 2.0 mi NNE 23.0 mph 29.9 mph 0.01 in Rain Light Rain
10:11 AM 51.8 °F - 48.2 °F 88% 30.27 in 6.0 mi NNE 21.9 mph 29.9 mph 0.00 in   Light Drizzle
10:51 AM 51.1 °F - 48.0 °F 89% 30.26 in 7.0 mi NNE 24.2 mph 28.8 mph 0.00 in   Overcast
11:51 AM 50.0 °F - 46.9 °F 89% 30.25 in 7.0 mi North 19.6 mph - 0.00 in Rain Light Rain
12:51 PM 50.0 °F - 46.0 °F 86% 30.22 in 6.0 mi NNE 20.7 mph 32.2 mph 0.00 in Rain Light Rain
1:31 PM 50.0 °F - 46.4 °F 87% 30.19 in 2.5 mi NNE 25.3 mph 32.2 mph 0.02 in Rain Light Rain
1:51 PM 48.9 °F - 46.9 °F 93% 30.18 in 2.5 mi North 26.5 mph 33.4 mph 0.02 in Rain Light Rain
2:00 PM 48.2 °F - 46.4 °F 93% 30.18 in 6.0 mi North 25.3 mph 33.4 mph 0.00 in Rain Light Rain
2:51 PM 48.9 °F - 46.0 °F 90% 30.19 in 5.0 mi North 23.0 mph 29.9 mph 0.00 in Rain Light Rain
3:15 PM 48.2 °F - 46.4 °F 93% 30.19 in 8.0 mi North 19.6 mph - 0.00 in   Overcast
3:29 PM 48.2 °F - 46.4 °F 93% 30.20 in 10.0 mi North 18.4 mph - 0.00 in   Overcast
3:51 PM 48.0 °F - 45.0 °F 89% 30.22 in 10.0 mi North 15.0 mph - 0.00 in   Light Drizzle
4:51 PM 48.0 °F - 45.0 °F 89% 30.24 in 3.0 mi North 17.3 mph - 0.02 in   Light Drizzle
5:49 PM 46.4 °F 39.0 °F 44.6 °F 93% 30.26 in 7.0 mi North 19.6 mph 26.5 mph 0.01 in Rain Light Rain
5:51 PM 46.9 °F - 44.1 °F 90% 30.26 in 7.0 mi North 18.4 mph - 0.01 in   Overcast
6:43 PM 46.4 °F 38.3 °F 44.6 °F 93% 30.26 in 6.0 mi North 23.0 mph 27.6 mph 0.01 in Rain Light Rain
6:51 PM 46.9 °F - 44.1 °F 90% 30.27 in 6.0 mi North 19.6 mph 27.6 mph 0.01 in Rain Light Rain
7:24 PM 46.4 °F 39.0 °F 44.6 °F 93% 30.28 in 10.0 mi North 19.6 mph - 0.00 in Rain Light Rain
7:51 PM 46.9 °F - 44.1 °F 90% 30.30 in 9.0 mi North 21.9 mph 26.5 mph 0.00 in   Overcast
8:35 PM 46.4 °F 39.8 °F 44.6 °F 93% 30.30 in 4.0 mi North 16.1 mph 26.5 mph 0.00 in   Light Drizzle
8:51 PM 46.9 °F - 44.1 °F 90% 30.32 in 5.0 mi North 18.4 mph - 0.00 in Rain Light Rain
9:14 PM 46.4 °F 40.1 °F 44.6 °F 93% 30.32 in 6.0 mi North 15.0 mph - 0.00 in Rain Light Rain
9:51 PM 46.9 °F - 45.0 °F 93% 30.32 in 6.0 mi NNW 15.0 mph - 0.00 in   Light Drizzle
10:51 PM 46.9 °F - 45.0 °F 93% 30.33 in 6.0 mi North 12.7 mph - 0.00 in   Overcast
11:51 PM 46.9 °F - 45.0 °F 93% 30.33 in 6.0 mi NNW 13.8 mph - 0.00 in Rain Light Rain